Location: Newark
(31.5350°N, 35.0986°E)
Time: 15:51:37
(UTC+00:00)

Explorer 7 - Pass Details

Date: 22 October 2019
Orbit: 485 x 680 km, 50.3° (Epoch: 18 November)

Event Time Altitude Azimuth Distance (km) Brightness Sun altitude
Rises 15:17:43 0° 309° (NW) 2,636 11.0 -4.4°
Reaches altitude 10° 15:19:53 10° 305° (NW) 1,773 10.1 -4.9°
Maximum altitude 15:23:50 58° 226° (SW) 643 7.5 -5.7°
Drops below altitude 10° 15:28:03 10° 147° (SSE) 1,881 9.3 -6.6°
Sets 15:30:25 0° 143° (SE) 2,814 10.2 -7.1°
